DateTimeUTC,F1_A11,F1_S11,BsB_S11,BsG_S11,BsR_S11,BbsB_S11,BbsG_S11,BbsR_S11,BaB_A11,BaG_A11,BaR_A11,Tu_S11,T_S11,Uu_S11,U_S11,P_S11,T1_A11
2021-05-31T08:00:00Z,00000200,20000000,,,,,,,-000.21,-000.09,-000.15,17.0,24.1,02.5,01.6,0657.6,31.0
2021-05-31T08:01:00Z,00000200,20000000,,,,,,,0000.05,-000.03,0000.13,17.0,24.1,02.3,01.5,0657.6,31.0
2021-05-31T08:02:00Z,00000200,20000000,,,,,,,-000.07,0000.11,-000.19,17.0,24.1,02.3,01.5,0657.6,31.0
2021-05-31T08:03:00Z,00000200,60000000,,,,,,,0000.53,0000.22,-000.02,17.0,24.1,02.3,01.5,0657.6,31.0
2021-05-31T08:04:00Z,00000200,40000000,0000.58,0000.49,-000.15,-000.32,-000.08,0000.04,-000.18,0000.34,0000.74,17.2,23.9,02.6,01.7,0658.5,31.0
2021-05-31T08:05:00Z,00000200,00000000,0000.88,0000.18,0000.01,0000.37,0000.20,-000.20,0000.26,-000.06,-000.35,17.2,23.8,02.7,01.8,0658.6,31.0
2021-05-31T08:06:00Z,00000200,00000000,0001.49,0000.34,-000.05,0000.02,0000.00,0000.13,-000.28,-000.07,0000.24,17.2,23.8,02.7,01.8,0658.6,31.0
2021-05-31T08:07:00Z,00000200,00000000,0000.61,0000.21,0000.09,0000.18,-000.02,0000.01,0000.13,0000.21,-000.31,17.2,23.8,02.5,01.7,0658.6,31.0
2021-05-31T08:08:00Z,00000200,00000000,0000.58,0000.44,0000.15,-000.31,0000.13,0000.13,0000.06,-000.01,0000.10,17.2,23.8,02.6,01.7,0658.6,31.0
2021-05-31T08:09:00Z,00000200,00000000,0000.68,0000.01,-000.07,-000.00,0000.15,0000.20,-000.10,-000.09,-000.19,17.2,23.8,02.5,01.7,0658.6,31.0
2021-05-31T08:10:00Z,00000200,00000000,0000.91,0000.67,-000.13,-000.11,0000.22,-000.20,-000.00,0000.31,0000.39,17.2,23.8,02.6,01.7,0658.6,31.0
2021-05-31T08:11:00Z,00000200,00000000,0000.17,0000.18,0000.15,-000.08,0000.06,0000.23,0000.60,-000.17,0000.40,17.2,23.8,02.6,01.7,0658.6,31.0
2021-05-31T08:12:00Z,00000200,00000000,0000.65,0000.38,0000.26,0000.44,0000.31,-000.04,0000.08,0000.40,0000.01,17.2,23.8,02.8,01.9,0658.6,31.0
2021-05-31T08:13:00Z,00000200,00000000,0001.39,0000.60,0000.09,-000.07,-000.11,0000.09,0000.15,-000.13,-000.38,17.2,23.8,02.7,01.8,0658.6,31.0
2021-05-31T08:14:00Z,00000200,00000000,0000.33,0000.25,0000.03,-000.91,0000.21,0000.19,0000.26,0000.73,0000.53,17.2,23.8,02.7,01.8,0658.6,31.0
2021-05-31T08:15:00Z,00000200,00000000,0000.51,0000.34,-000.04,-000.69,-000.03,0000.10,0000.15,0000.02,-000.12,17.2,23.8,02.8,01.9,0658.5,31.0
2021-05-31T08:16:00Z,00000200,00000000,0000.89,0000.57,-000.01,-000.09,0000.15,0000.10,0000.15,0000.31,0000.65,17.2,23.8,02.9,02.0,0658.5,30.9
2021-05-31T08:17:00Z,00000200,00000000,0000.19,0000.46,-000.01,-000.05,0000.16,0000.01,0000.40,-000.10,-000.04,17.2,23.8,03.0,02.0,0658.5,31.0
2021-05-31T08:18:00Z,00000200,00000000,0000.56,0000.36,0000.12,-000.13,-000.10,-000.11,0000.29,0000.62,0000.35,17.2,23.8,03.1,02.1,0658.5,31.0
2021-05-31T08:19:00Z,00000200,00000000,0000.74,0000.31,0000.23,0000.03,0000.32,0000.05,0000.56,0000.46,0000.47,17.2,23.8,03.3,02.2,0658.5,31.0
2021-05-31T08:20:00Z,00000200,00000000,0000.88,0000.55,0000.28,0000.15,0000.49,0000.08,0000.36,0000.26,-000.03,17.2,23.8,03.4,02.3,0658.5,30.9
2021-05-31T08:21:00Z,00000200,00000000,0000.78,0000.47,0000.17,0000.32,0000.10,0000.15,-000.02,-000.12,0000.26,17.2,23.8,03.6,02.4,0658.6,30.9
2021-05-31T08:22:00Z,00000200,00000000,0001.11,0000.80,0000.07,-000.14,0000.14,-000.05,0000.10,0000.58,-000.27,17.2,23.8,03.6,02.4,0658.6,30.9
2021-05-31T08:23:00Z,00000200,00000000,0000.77,0000.56,-000.10,0000.49,-000.09,0000.04,0000.38,-000.06,0000.79,17.2,23.8,03.7,02.5,0658.6,31.0
2021-05-31T08:24:00Z,00000200,00000000,0000.81,-000.08,-000.01,-000.47,0000.31,-000.03,-000.27,0000.03,-000.47,17.2,23.8,03.7,02.5,0658.6,31.0
2021-05-31T08:25:00Z,00000200,00000000,0001.32,0000.48,0000.07,0000.05,0000.17,0000.14,0000.26,-000.33,-000.03,17.2,23.8,03.8,02.5,0658.6,31.0
2021-05-31T08:26:00Z,00000200,00000000,0000.84,0000.30,0000.17,0000.12,0000.03,0000.28,0000.24,0000.71,0000.34,17.2,23.8,03.7,02.5,0658.6,31.0
2021-05-31T08:27:00Z,00000200,00000000,0001.21,0000.14,0000.24,0000.69,0000.03,-000.03,0000.14,0000.13,0000.09,17.2,23.8,03.7,02.5,0658.5,31.0
2021-05-31T08:28:00Z,00000200,00000000,0001.29,0000.42,0000.21,-000.14,0000.15,0000.26,-000.29,-000.17,-000.19,17.2,23.8,03.8,02.5,0658.5,31.0
2021-05-31T08:29:00Z,00000200,00000000,0000.78,0000.39,0000.04,-000.23,-000.08,0000.11,0000.55,0000.27,0000.31,17.2,23.8,03.8,02.6,0658.5,31.0
2021-05-31T08:30:00Z,00000200,00000000,0001.02,0000.12,-000.08,0000.22,0000.18,-000.01,-000.14,0000.09,-000.19,17.2,23.7,03.7,02.5,0658.5,31.0
2021-05-31T08:31:00Z,00000200,00000000,0001.23,0000.48,0000.10,-000.00,0000.04,0000.33,-000.04,0000.30,0000.48,17.2,23.7,03.7,02.5,0658.5,31.0
2021-05-31T08:32:00Z,00000200,00000000,0001.38,0000.47,0000.02,0000.08,-000.01,0000.13,0000.51,0000.21,0000.09,17.2,23.7,03.9,02.6,0658.5,31.0
2021-05-31T08:33:00Z,00000200,00000000,0001.09,0000.24,0000.03,0000.11,0000.25,0000.22,0000.05,-000.06,0000.14,17.2,23.7,03.9,02.6,0658.6,31.0
2021-05-31T08:34:00Z,00000200,00000000,0000.42,0000.35,0000.06,0000.27,-000.08,0000.00,0000.16,-000.25,-000.32,17.2,23.7,04.1,02.8,0658.6,30.9
2021-05-31T08:35:00Z,00000200,00000000,0000.91,0000.30,0000.11,0000.23,0000.20,-000.06,0000.43,0000.35,0000.71,17.2,23.7,04.0,02.7,0658.6,30.9
2021-05-31T08:36:00Z,00000200,00000000,0000.71,0000.32,-000.13,0000.26,0000.11,-000.22,-000.25,0000.17,-000.45,17.2,23.7,04.0,02.7,0658.6,31.0
2021-05-31T08:37:00Z,00000200,00000000,0001.05,0000.47,0000.13,0000.39,0000.17,-000.10,-000.01,-000.32,0000.27,17.3,23.7,04.0,02.7,0658.5,31.0
2021-05-31T08:38:00Z,00000200,00000000,0000.49,0000.33,0000.05,0000.25,0000.34,-000.08,0000.03,0000.20,-000.25,17.3,23.8,04.0,02.6,0658.5,31.0
2021-05-31T08:39:00Z,00000200,00000000,0000.50,0000.66,-000.22,0000.17,-000.11,-000.14,0000.06,0000.10,0000.46,17.3,23.8,03.9,02.6,0658.5,31.0
2021-05-31T08:40:00Z,00000200,00000000,0001.25,0000.34,0000.15,-000.19,0000.17,0000.11,-000.01,-000.21,-000.22,17.3,23.7,03.7,02.5,0658.5,31.0
2021-05-31T08:41:00Z,00000200,00000000,0001.01,0000.64,-000.19,-000.38,0000.20,-000.16,0000.13,0000.15,-000.06,17.3,23.7,03.8,02.5,0658.5,31.0
2021-05-31T08:42:00Z,00000200,00000000,0001.58,0000.49,0000.05,-000.21,-000.00,0000.03,0000.14,0000.40,0000.20,17.3,23.7,03.8,02.5,0658.5,31.0
2021-05-31T08:43:00Z,00000200,00000000,0000.59,0000.43,-000.12,0000.03,-000.01,0000.25,0000.31,0000.24,0000.34,17.3,23.7,03.8,02.6,0658.5,31.0
2021-05-31T08:44:00Z,00000200,00000000,0000.41,0000.49,0000.12,0000.01,0000.00,-000.06,0000.09,-000.06,0000.23,17.3,23.7,03.9,02.6,0658.5,31.0
2021-05-31T08:45:00Z,00000200,00000000,0001.08,0000.30,0000.07,0000.34,0000.24,-000.00,0000.41,0000.54,0000.11,17.3,23.7,04.1,02.7,0658.5,31.0
2021-05-31T08:46:00Z,00000200,00000000,0000.99,0000.35,-000.15,-000.45,-000.01,0000.12,-000.02,-000.40,0000.01,17.3,23.7,04.0,02.7,0658.5,31.0
2021-05-31T08:47:00Z,00000200,00000000,0000.49,0000.49,0000.08,-000.10,0000.16,-000.06,0000.38,0000.49,0000.14,17.3,23.7,04.1,02.8,0658.5,31.0
2021-05-31T08:48:00Z,00000200,00000000,0000.48,0000.40,-000.20,0000.03,-000.02,-000.24,-000.35,-000.39,-000.20,17.3,23.7,04.1,02.7,0658.5,31.0
2021-05-31T08:49:00Z,00000200,00000000,0000.48,0000.58,0000.11,-000.16,0000.20,-000.28,0000.24,0000.08,0000.36,17.3,23.7,04.1,02.7,0658.5,31.0
2021-05-31T08:50:00Z,00000200,00000000,0000.60,0000.43,0000.20,-000.46,-000.05,0000.25,0000.28,0000.34,-000.09,17.3,23.7,04.1,02.8,0658.5,30.9
2021-05-31T08:51:00Z,00000200,00000000,0000.96,0000.44,-000.28,0000.47,0000.03,-000.17,0000.01,0000.19,0000.09,17.3,23.7,04.0,02.7,0658.5,31.0
2021-05-31T08:52:00Z,00000200,00000000,0000.36,0000.53,-000.36,-000.22,0000.19,-000.06,0000.07,0000.28,0000.07,17.3,23.7,04.1,02.8,0658.5,31.0
2021-05-31T08:53:00Z,00000200,00000000,0000.39,0000.21,0000.15,0000.27,0000.03,0000.08,-000.03,-000.26,0000.13,17.3,23.7,04.1,02.7,0658.5,31.0
2021-05-31T08:54:00Z,00000200,00000000,0001.50,0000.36,-000.01,0000.08,0000.04,0000.02,-000.21,0000.16,-000.34,17.3,23.7,04.2,02.8,0658.5,31.0
2021-05-31T08:55:00Z,00000200,00000000,0001.26,0000.37,-000.00,0000.27,-000.02,0000.10,0000.25,-000.14,0000.18,17.3,23.7,04.1,02.8,0658.5,31.0
2021-05-31T08:56:00Z,00000200,00000000,0001.21,0000.60,0000.03,0000.04,0000.07,-000.10,0000.35,0000.69,0000.15,17.3,23.7,04.1,02.7,0658.5,31.0
2021-05-31T08:57:00Z,00000200,40000000,,,,,,,-000.61,-000.70,-000.32,17.3,23.8,04.2,02.8,0658.4,31.0
2021-05-31T08:58:00Z,00000200,60000000,,,,,,,0000.08,-000.03,0000.19,17.0,23.9,03.7,02.4,0657.5,30.9
2021-05-31T08:59:00Z,00000200,20000000,,,,,,,0000.02,0000.33,0000.09,17.0,24.0,03.7,02.4,0657.5,30.9
